Location: Unspecified
(38.9820°N, 94.4650°W)
Time: 08:33:17
(UTC-05:00)

Resurs 1-4 Rocket - Visible Passes

Search period start: 21 March 2019 00:00
Search period end: 31 March 2019 00:00
Orbit: 800 x 813 km, 98.6° (Epoch: 20 March)

Date Brightness Start Highest point End Pass type
(mag) Time Alt. Az. Time Alt. Az. Time Alt. Az.
21 Mar 4.7 04:01:09 10° N 04:01:33 12° N 04:01:33 12° N visible
22 Mar 4.7 03:36:11 10° N 03:36:47 13° N 03:36:47 13° N visible
23 Mar 4.8 03:11:28 10° NNE 03:12:00 13° NNE 03:12:00 13° NNE visible
24 Mar 5.0 02:46:59 10° NNE 02:47:13 11° NNE 02:47:13 11° NNE visible
24 Mar 4.5 04:28:00 10° NNW 04:28:19 11° NNW 04:28:19 11° NNW visible
25 Mar 4.5 04:02:40 10° N 04:03:32 14° NNW 04:03:32 14° NNW visible
26 Mar 4.5 03:37:41 10° N 03:38:45 16° N 03:38:45 16° N visible
27 Mar 4.6 03:12:57 10° NNE 03:13:59 16° NNE 03:13:59 16° NNE visible
28 Mar 4.8 02:48:27 10° NNE 02:49:12 14° NNE 02:49:12 14° NNE visible
28 Mar 4.4 04:29:34 10° NNW 04:30:17 12° NNW 04:30:17 12° NNW visible
29 Mar 5.0 02:24:13 10° NNE 02:24:25 11° NNE 02:24:25 11° NNE visible
29 Mar 4.3 04:04:11 10° N 04:05:30 16° NNW 04:05:30 16° NNW visible
30 Mar 4.2 03:39:12 10° N 03:40:44 19° N 03:40:44 19° N visible
